[[{"header":{"parameterUnit":"m.s-1","parameterCategory":1,"la1":30.2991,"la2":30.254,"lo1":-89.0895,"lo2":-89.0444,"dy":0.0017,"dx":0.0017,"nx":28,"ny":28,"refTime":"2023-08-16T09:00:00:Z","depth":0,"parameterNumber":2,"parameterNumberName":"U-component_of_WINDS"},"data":[0,0,0,0,0,0,0,0,0,0,0,0,0,0,0,0,0,0,0,0,0,0,0,0,0,0,0,0,0,0,0,0,0,0,0,0,0,0,0,0,0,0,0,0,0,0,0,0,0,0,0,0,0,0,0,0,0,0,1.8951,1.8952,0,1.9037,1.9038,1.9039,1.9007,1.9005,1.9003,1.9001,1.9091,1.9095,1.9099,0,0,0,0,0,0,0,0,0,0,0,0,0,1.8758,1.8761,1.8951,1.8952,1.8953,1.9037,1.9038,1.9039,1.9008,1.9005,1.9003,1.9001,1.9089,1.9094,1.9099,0,0,0,0,0,0,0,0,0,0,0,0,0,1.8843,1.8763,1.895,1.8947,1.8948,1.9037,1.9038,1.904,1.9008,1.9005,1.9002,1.8999,1.9088,1.9094,1.91,1.9198,0,0,1.9119,1.9122,0,0,0,0,0,0,0,0,1.8838,1.885,1.8947,1.8948,1.8948,1.9008,1.9003,1.9093,1.9009,1.8985,1.9001,1.8998,1.9066,1.9074,1.9096,1.9202,1.9206,1.912,1.9124,1.9127,1.9128,0,0,0,0,0,0,0,1.8832,1.8846,1.8985,1.8948,1.8949,1.8941,1.895,1.902,1.9041,1.8987,1.8985,1.8996,1.9066,1.909,1.9098,1.9207,1.912,1.9125,1.9129,1.9132,1.9396,1.9399,0,0,0,0,0,0,1.8826,1.8841,1.8982,1.8987,1.8885,1.8947,1.8957,1.8992,1.904,1.9045,1.8998,1.8994,1.9081,1.9091,1.9101,1.9218,1.9127,1.9132,1.9136,1.9392,1.9396,1.94,0,0,0,0,0,0,1.8822,1.8839,1.8979,1.8914,1.8931,1.8953,1.8993,1.8995,1.902,1.9048,1.9052,1.9019,1.9079,1.9092,1.9174,1.922,1.9135,1.9141,1.9389,1.9394,1.9398,1.9452,0,0,0,0,0,0,1.8816,1.8837,1.8875,1.8915,1.8935,1.905,1.8996,1.8999,1.9031,1.9026,1.9069,1.9074,1.9078,1.9164,1.918,1.9227,1.9146,1.9385,1.9391,1.9397,1.9446,1.9458,1.9468,0,0,0,0,0,1.8809,1.8887,1.8877,1.8894,1.8982,1.9053,1.9064,1.9067,1.9035,1.9072,1.909,1.9072,1.9213,1.9173,1.919,1.924,1.9382,1.9389,1.9396,1.9441,1.9455,1.9468,0,0,0,0,0,0,1.8853,1.8892,1.8882,1.8975,1.901,1.9047,1.9095,1.9082,1.9128,1.9122,1.9124,1.9134,1.9217,1.9237,1.9192,1.9336,1.9292,1.9303,1.932,1.9335,1.9345,1.9338,1.9151,0,0,0,0,0,1.8873,1.8927,1.8959,1.9038,1.9056,1.9073,1.9103,1.9102,1.914,1.9155,1.9179,1.9216,1.9268,1.9303,1.9352,1.9449,1.9457,1.9491,1.9502,1.9511,1.9521,1.9571,1.9587,1.9424,1.9424,1.9423,0,0,1.8916,1.8944,1.8978,1.9047,1.9075,1.913,1.9086,1.9147,1.9187,1.9164,1.9242,1.9261,1.9302,1.9391,1.9431,1.941,1.9568,1.9521,1.9528,1.9532,1.958,1.9596,1.961,1.9429,1.9428,1.9427,0,0,1.9022,1.9049,1.9117,1.9145,1.9187,1.9197,1.9214,1.9252,1.9263,1.9341,1.9324,1.9373,1.9464,1.9493,1.952,1.9635,1.962,1.9652,1.9709,1.9759,1.9771,1.9783,1.9823,1.9837,1.9661,1.9661,1.9661,0,1.9069,1.9152,1.9153,1.9215,1.9245,1.9226,1.9295,1.9322,1.9379,1.94,1.9375,1.9487,1.9514,1.9608,1.9636,1.9659,1.9677,1.9646,1.9769,1.9781,1.9791,1.9829,1.9845,1.9665,1.9664,1.9664,1.9664,0,1.9208,1.9265,1.9315,1.9369,1.9405,1.947,1.9481,1.9517,1.9513,1.9525,1.9604,1.9635,1.969,1.9712,1.9709,1.9806,1.9791,1.9768,1.9724,1.981,1.9846,1.9861,1.967,1.9668,1.9667,1.9666,0,0,1.9344,1.9396,1.9415,1.9438,1.9482,1.9527,1.959,1.9644,1.9674,1.9713,1.9766,1.9842,1.982,1.9851,1.9851,1.9894,1.9982,1.9866,1.9867,1.9885,2.0089,2.0105,2.0122,1.9972,1.9975,1.9977,2.0085,0,1.9452,1.9563,1.9565,1.9667,1.9719,1.9701,1.9756,1.9789,1.9803,1.9849,1.9863,1.9917,1.9885,1.9903,1.9945,1.9962,2.0023,1.9955,2.002,2.0023,2.0009,2.0141,2.0159,2.0259,2.0099,2.0101,2.0103,0,1.9593,1.9636,1.9742,1.9777,1.9799,1.9849,1.9897,1.9942,1.9978,1.9985,2.0018,2.0011,2.0075,2.0029,2.0117,2.0071,2.0098,2.011,2.0114,2.012,2.0067,2.0149,2.0291,2.0306,2.0125,2.0124,2.0122,0,1.9679,1.9764,1.9838,1.9859,1.9902,1.9937,1.9957,1.9991,2.0022,2.0064,2.0084,2.0133,2.016,2.0198,2.0204,2.0171,2.0292,2.0247,2.0299,2.0298,2.0325,2.0323,2.0472,2.0344,2.0344,2.0343,2.0343,0,1.9799,1.9865,1.9877,1.9923,1.9995,1.9997,2.0069,2.0086,2.0116,2.0164,2.0152,2.0197,2.0203,2.025,2.0256,2.0327,2.0339,2.0346,2.0346,2.0346,2.0345,2.0364,2.0356,2.0347,2.0346,2.0346,2.0345,0,1.9908,1.9919,1.9998,2.0032,2.0042,2.0094,2.0123,2.0167,2.0178,2.0239,2.0254,2.0272,2.0326,2.0336,2.0401,2.0404,2.0489,2.0483,2.0476,2.0475,2.0526,2.052,2.0691,2.0713,2.0572,2.0573,2.0574,0,1.9983,2.0033,2.0072,2.0103,2.0124,2.0175,2.0206,2.021,2.0243,2.0288,2.0325,2.0378,2.0421,2.0508,2.0527,2.0576,2.0571,2.0627,2.0578,2.0576,2.057,2.0567,2.0571,2.0636,2.0638,2.0639,2.064,0,2.0115,2.0118,2.0163,2.0211,2.0248,2.0286,2.0321,2.0348,2.0356,2.0393,2.0448,2.0481,2.0547,2.0599,2.0648,2.0668,2.0655,2.0656,2.067,2.067,2.0664,2.0666,2.0501,2.0652,2.065,2.065,2.0649,2.0649,2.0208,2.0251,2.0285,2.0336,2.0363,2.0396,2.0437,2.0454,2.05,2.0552,2.0552,2.0612,2.0646,2.071,2.0733,2.078,2.0762,2.0783,2.0788,2.0793,2.0797,2.0657,2.0789,2.0788,2.0788,2.0788,2.0788,0,2.0338,2.0359,2.0406,2.0455,2.0495,2.0479,2.0518,2.0552,2.0604,2.0637,2.0679,2.0741,2.0792,2.0814,2.0864,2.0897,2.0892,2.091,2.0907,2.0911,2.0811,2.0793,2.0912,2.0912,2.0912,2.0912,2.0912,2.0912,2.0411,2.0482,2.0488,2.0572,2.0592,2.065,2.0673,2.0703,2.0729,2.0799,2.0841,2.0855,2.0883,2.0935,2.098,2.0985,2.1004,2.1023,2.1026,2.0931,2.0919,2.0907,2.089,2.1028,2.1028,2.1122,2.1123,2.1124]},{"header":{"parameterUnit":"m.s-1","parameterCategory":1,"la1":30.2991,"la2":30.254,"lo1":-89.0895,"lo2":-89.0444,"dy":0.0017,"dx":0.0017,"nx":28,"ny":28,"refTime":"2023-08-16T09:00:00:Z","depth":0,"parameterNumber":3,"parameterNumberName":"V-component_of_WINDS"},"data":[0,0,0,0,0,0,0,0,0,0,0,0,0,0,0,0,0,0,0,0,0,0,0,0,0,0,0,0,0,0,0,0,0,0,0,0,0,0,0,0,0,0,0,0,0,0,0,0,0,0,0,0,0,0,0,0,0,0,3.4883,3.4883,0,3.4915,3.4915,3.4916,3.4873,3.4872,3.487,3.4869,3.4898,3.49,3.4903,0,0,0,0,0,0,0,0,0,0,0,0,0,3.478,3.4782,3.4883,3.4883,3.4884,3.4915,3.4915,3.4916,3.4874,3.4872,3.487,3.4868,3.4898,3.49,3.4903,0,0,0,0,0,0,0,0,0,0,0,0,0,3.4819,3.4783,3.4883,3.4866,3.4865,3.4915,3.4915,3.4916,3.4874,3.4872,3.4869,3.4867,3.4897,3.49,3.4903,3.4969,0,0,3.4913,3.4915,0,0,0,0,0,0,0,0,3.4817,3.4823,3.4868,3.4867,3.4866,3.4888,3.489,3.4934,3.4874,3.487,3.4869,3.4866,3.4896,3.49,3.4911,3.4971,3.4972,3.4914,3.4916,3.4917,3.4918,0,0,0,0,0,0,0,3.4815,3.4822,3.4895,3.4869,3.4868,3.4856,3.4859,3.4898,3.4896,3.4871,3.4868,3.4872,3.4895,3.4907,3.4911,3.4972,3.4913,3.4916,3.4918,3.492,3.5086,3.5089,0,0,0,0,0,0,3.4814,3.482,3.4894,3.4896,3.4836,3.486,3.4863,3.4883,3.4895,3.4895,3.4874,3.487,3.4903,3.4907,3.4912,3.4989,3.4917,3.492,3.4922,3.5084,3.5087,3.509,0,0,0,0,0,0,3.4812,3.4821,3.4893,3.4857,3.4865,3.4864,3.4887,3.4885,3.4897,3.4898,3.4897,3.4887,3.4901,3.4907,3.4955,3.4989,3.4922,3.4925,3.5081,3.5085,3.5088,3.5144,0,0,0,0,0,0,3.481,3.4821,3.4847,3.4858,3.4868,3.4937,3.4889,3.4887,3.4903,3.4898,3.491,3.491,3.49,3.495,3.4958,3.4992,3.4927,3.5078,3.5083,3.5087,3.5139,3.5149,3.5158,0,0,0,0,0,3.4806,3.4861,3.4849,3.4858,3.4901,3.4939,3.4945,3.4933,3.4906,3.4932,3.4932,3.4909,3.4984,3.4956,3.4964,3.5,3.5076,3.5081,3.5087,3.5135,3.5147,3.5157,0,0,0,0,0,0,3.4853,3.4862,3.4849,3.4909,3.4924,3.4932,3.4964,3.4947,3.4969,3.4963,3.4947,3.495,3.5001,3.5005,3.4973,3.5064,3.5025,3.5033,3.5059,3.5071,3.508,3.5077,3.493,0,0,0,0,0,3.4871,3.4903,3.4909,3.4962,3.497,3.4966,3.4982,3.4973,3.4987,3.4992,3.4996,3.501,3.5036,3.5054,3.5078,3.514,3.514,3.5168,3.5178,3.5185,3.5191,3.5222,3.5234,3.5108,3.5108,3.5107,0,0,3.4907,3.4916,3.4937,3.4971,3.4982,3.5014,3.4971,3.5007,3.503,3.4997,3.5043,3.5046,3.506,3.5115,3.5139,3.512,3.5227,3.5192,3.5198,3.52,3.5229,3.5241,3.5252,3.5111,3.5111,3.511,0,0,3.499,3.5001,3.5045,3.5056,3.5073,3.507,3.508,3.5091,3.5092,3.5138,3.5113,3.514,3.5186,3.5197,3.5208,3.5294,3.5273,3.5302,3.535,3.5381,3.5391,3.5399,3.5428,3.5439,3.5308,3.5309,3.5309,0,3.5033,3.5081,3.507,3.5108,3.5122,3.5095,3.5139,3.515,3.5173,3.5183,3.5161,3.5218,3.5226,3.5282,3.5303,3.5313,3.5323,3.53,3.539,3.5399,3.5407,3.5434,3.5445,3.5312,3.5312,3.5311,3.5311,0,3.5132,3.5166,3.52,3.5224,3.5242,3.5283,3.5276,3.5296,3.5285,3.5283,3.5329,3.5337,3.5362,3.5375,3.5364,3.5429,3.5416,3.5393,3.5354,3.5422,3.5448,3.5458,3.5317,3.5316,3.5315,3.5314,0,0,3.5245,3.5262,3.5274,3.5284,3.53,3.5325,3.5363,3.5389,3.5405,3.5422,3.5453,3.5493,3.5471,3.5484,3.5473,3.55,3.5566,3.5473,3.5473,3.5489,3.5636,3.5653,3.5665,3.5553,3.5555,3.5556,3.5634,0,3.5326,3.5394,3.5385,3.5449,3.5479,3.5453,3.5487,3.5499,3.5499,3.5523,3.5522,3.555,3.552,3.5527,3.5553,3.5552,3.5595,3.5547,3.5579,3.558,3.5575,3.5679,3.5696,3.577,3.5644,3.5646,3.5647,0,3.5431,3.5452,3.5519,3.5529,3.5541,3.5572,3.5593,3.5618,3.563,3.5628,3.5642,3.5627,3.5663,3.5625,3.5674,3.5642,3.5655,3.5656,3.5659,3.566,3.5617,3.5681,3.5793,3.5804,3.5663,3.5662,3.5661,0,3.5504,3.5549,3.5595,3.5605,3.5618,3.5639,3.5645,3.5656,3.5671,3.569,3.5699,3.5722,3.5734,3.5751,3.5742,3.5715,3.5792,3.5753,3.579,3.579,3.5806,3.5805,3.592,3.5817,3.5817,3.5817,3.5816,0,3.5595,3.5637,3.5628,3.5657,3.5702,3.569,3.5735,3.5738,3.5748,3.5775,3.5754,3.5779,3.5766,3.579,3.5783,3.5824,3.583,3.5828,3.5825,3.5829,3.5829,3.5836,3.583,3.5819,3.5819,3.5818,3.5818,0,3.5684,3.5681,3.5729,3.5737,3.574,3.5773,3.578,3.5805,3.5803,3.5838,3.5845,3.5841,3.5869,3.5861,3.5891,3.5885,3.5937,3.5929,3.5933,3.593,3.5967,3.5963,3.6089,3.6105,3.5993,3.5994,3.5995,0,3.5742,3.5774,3.5786,3.5803,3.5811,3.5839,3.5854,3.5843,3.586,3.5877,3.59,3.5925,3.5945,3.599,3.5989,3.6011,3.6002,3.6045,3.6005,3.6007,3.6,3.5998,3.6,3.6052,3.6053,3.6054,3.6055,0,3.5844,3.5841,3.5865,3.5888,3.5908,3.5925,3.594,3.5955,3.5945,3.5965,3.5993,3.6008,3.6038,3.6063,3.6083,3.6088,3.607,3.6068,3.6077,3.6081,3.6081,3.608,3.5953,3.6065,3.6064,3.6063,3.6063,3.6062,3.5919,3.5945,3.5957,3.5984,3.5995,3.601,3.6034,3.6035,3.6058,3.6082,3.6074,3.6106,3.6116,3.6141,3.6149,3.6172,3.6156,3.617,3.6173,3.6176,3.618,3.6079,3.6176,3.6176,3.6175,3.6175,3.6175,0,3.6018,3.6025,3.605,3.6072,3.6093,3.6075,3.6091,3.6109,3.6138,3.6149,3.6169,3.6201,3.6225,3.6226,3.6248,3.6267,3.6259,3.6273,3.627,3.6271,3.6194,3.6183,3.6279,3.6279,3.6279,3.6279,3.6279,3.6279,3.6073,3.6116,3.6114,3.6161,3.6167,3.6199,3.6209,3.6222,3.6231,3.6267,3.6287,3.6288,3.6295,3.6318,3.6339,3.6338,3.6346,3.6364,3.636,3.6287,3.6277,3.6267,3.6257,3.6366,3.6366,3.6435,3.6435,3.6436]}]]